Tracking 17784 objects as of 23-July-2016
HD Live streaming from Space Station
objects crossing your sky now

COSMOS 2251 DEB

Track COSMOS 2251 DEB now!
10-day predictions


NORAD ID: 34447
Int'l Code: 1993-036SQ
Perigee: 636.8 km
Apogee: 666.0 km
Inclination: 74.0 °
Period: 97.6 minutes
Semi major axis: 7022 km
RCS: 0.038 m2 (small)
Launch date: June 16, 1993
Source: Commonwealth of Independent States (former USSR) (CIS)
Launch site: PLESETSK MISSILE AND SPACE COMPLEX (PKMTR)

Note: This is SATELLITE DEBRIS
Your satellite tracking list
Your tracking list is empty





NASA's NSSDC Master Catalog

Two Line Element Set (TLE):
1 34447U 93036SQ  16203.99739032  .00002538  00000-0  37831-3 0  9990
2 34447  74.0293 283.5289 0020816 188.0452 228.3738 14.75287467393055
Source of the keplerian elements: AFSPC

N2YO: 822